This demonstration page uses our WeatherBlox Daily Observations layout. Learn more.

Left ArrowRight Arrow

31.84235, -102.49876

Hourly Observations for August 26, 2017

Temp ( °F °C ) Dew Point ( °F °C ) Humidity (%) Winds ( mph kmh ) Pressure ( in mb ) Visibility ( mi km ) Precip ( " mm )
12:53 am 00:53 Clear 71 21.7 69 20.6 94 94 E 7 11 29.96 1015 10 16 0.00 0.00
1:53 am 01:53 Mostly Clear 71 21.7 68 20 90 90 E 6 9 29.95 1014 10 16 0.00 0.00
2:02 am 02:02 Mostly Clear 71 21.7 68 20 90 90 E 8 13 29.97 1015 10 16 0.00 0.00
2:29 am 02:29 Mostly Cloudy 71 21.7 69 20.6 94 94 E 6 9 29.97 1015 10 16 0.00 0.00
2:40 am 02:40 Mostly Cloudy 71 21.7 69 20.6 94 94 ENE 6 9 29.97 1015 10 16 0.00 0.00
2:49 am 02:49 Cloudy 72 22 70 21 94 94 NE 6 9 29.97 1015 10 16 0.00 0.00
2:53 am 02:53 Cloudy 71 21.7 69 20.6 94 94 NE 6 9 29.95 1014 9 14 0.00 0.00
3:01 am 03:01 Cloudy 71 21.7 69 20.6 94 94 NE 6 9 29.97 1015 10 16 0.00 0.00
3:53 am 03:53 Mostly Cloudy 71 21.7 69 20.6 94 94 NE 5 7 29.95 1014 8 13 0.00 0.00
4:53 am 04:53 Cloudy 72 22.2 69 20.6 91 91 E 8 13 29.96 1014 8 13 0.00 0.00
5:35 am 05:35 Cloudy 72 22.2 68 20 87 87 E 8 13 29.97 1015 9 14 0.00 0.00
5:53 am 05:53 Cloudy 72 22.2 69 20.6 91 91 ENE 8 13 29.98 1015 8 13 0.00 0.00
6:16 am 06:16 Cloudy 72 22.2 68 20 87 87 E 9 15 29.97 1015 8 13 0.00 0.00
6:47 am 06:47 Cloudy 72 22 70 21 94 94 E 8 13 29.97 1015 7 11 0.00 0.00
6:53 am 06:53 Mostly Cloudy 71 21.7 69 20.6 94 94 E 7 11 30.00 1016 7 11 0.00 0.00
7:01 am 07:01 Mostly Cloudy 71 21.7 68 20 90 90 E 7 11 29.97 1015 7 11 0.00 0.00
7:37 am 07:37 Cloudy with Mist and Fog 71 21.7 69 20.6 94 94 ENE 6 9 29.97 1015 6 10 0.00 0.00
7:44 am 07:44 Cloudy with Mist and Fog 71 21.7 69 20.6 94 94 ENE 5 7 29.97 1015 6 10 0.00 0.00
7:53 am 07:53 Cloudy with Mist and Fog 71 21.7 69 20.6 94 94 E 7 11 30.01 1016 6 10 0.00 0.00
8:08 am 08:08 Cloudy with Mist and Fog 71 21.7 68 20 90 90 E 7 11 30.00 1016 6 10 0.00 0.00
8:53 am 08:53 Cloudy 72 22.2 68 20 87 87 ENE 6 9 30.03 1017 9 14 0.00 0.00
9:01 am 09:01 Cloudy 73 22.8 67 19.4 81 81 E 7 11 30.00 1016 9 14 0.00 0.00
9:43 am 09:43 Cloudy 73 22.8 68 20 84 84 NE 7 11 30.00 1016 8 13 0.00 0.00
9:53 am 09:53 Mostly Cloudy 73 22.8 68 20 84 84 NE 7 11 30.03 1017 8 13 0.00 0.00
10:24 am 10:24 Mostly Cloudy 76 24.4 68 20 77 77 NNE 9 15 29.97 1015 9 14 0.00 0.00
10:51 am 10:51 Mostly Cloudy 77 25 66 19 69 69 NE 10 17 29.97 1015 10 16 0.00 0.00
10:53 am 10:53 Mostly Cloudy 77 25 66 18.9 69 69 NNE 10 17 30.04 1017 10 16 0.00 0.00
11:00 am 11:00 Mostly Cloudy 78 25.6 67 19.4 69 69 NE 12 19 29.97 1015 10 16 0.00 0.00
11:26 am 11:26 Mostly Cloudy 78 25.6 66 18.9 67 67 NNE 10 17 29.97 1015 10 16 0.00 0.00
11:53 am 11:53 Mostly Cloudy 78 25.6 66 18.9 67 67 NE 10 17 30.04 1017 10 16 0.00 0.00
12:53 pm 12:53 Mostly Sunny 81 27.2 66 18.9 61 61 ENE 12 19 30.02 1017 10 16 0.00 0.00
1:53 pm 13:53 Mostly Sunny 84 28.9 64 17.8 51 51 NE 14 22 29.99 1016 10 16 0.00 0.00
2:53 pm 14:53 Cloudy 83 28.3 64 17.8 53 53 E 8 13 29.98 1015 10 16 0.00 0.00
3:53 pm 15:53 Mostly Cloudy with Heavy Rain 79 26.1 66 18.9 65 65 N 14 22 29.97 1015 5 8 0.01 0.25
4:53 pm 16:53 Partly Cloudy 83 28.3 64 17.8 53 53 E 13 20 29.94 1014 10 16 0.01 0.25
5:53 pm 17:53 Partly Cloudy 85 29.4 63 17.2 48 48 E 13 20 29.94 1014 10 16 0.00 0.00
6:53 pm 18:53 Mostly Sunny 84 28.9 63 17.2 49 49 E 15 24 29.94 1014 10 16 0.00 0.00
7:53 pm 19:53 Mostly Cloudy 80 26.7 63 17.2 56 56 E 12 19 29.95 1014 10 16 0.00 0.00
8:53 pm 20:53 Clear 78 25.6 63 17.2 60 60 E 9 15 29.97 1015 10 16 0.00 0.00
9:53 pm 21:53 Clear 75 23.9 66 18.9 74 74 ESE 8 13 30.00 1016 10 16 0.00 0.00
10:53 pm 22:53 Clear 74 23.3 66 18.9 76 76 ESE 7 11 30.01 1016 10 16 0.00 0.00
11:53 pm 23:53 Clear 72 22.2 66 18.9 82 82 E 6 9 30.02 1017 10 16 0.00 0.00

Powered by AerisWeather